Flag for U.S.A. Weather past 2 weeks in Topeka, Kansas, U.S.A.

Now
60 °F

Clear.


Feels Like: 60 °F
Forecast: 63 / 79 °F
Wind: 3 mph from Southwest

Location: Philip Billard Municipal Airport

Current Time: May 26, 2015 at 5:13:39 AM

Latest Report: May 26, 2015 at 4:53 AM


Visibility: 10 mi

Pressure: 29.75 "Hg

Humidity: 96%

Dew point: 59 °F

Location of TopekaLocation

Historic Weather in Topeka — Graph

°F

Topeka temperature yesterday

Maximum temperature yesterday: 80 °F (at 3:53 PM)
Minimum temperature yesterday: 60 °F (at 3:53 AM)
Average temperature yesterday: 69 °F

Past Weeks' High & Low Weather Summary

 TemperatureHumidityPressure
High82 °F (May 17, 5:53 PM)100% (May 14, 11:53 PM)30.34 "Hg (May 14, 11:53 PM)
Low43 °F (May 12, 5:53 AM)32% (May 12, 4:53 PM)29.64 "Hg (May 17, 12:53 AM)
Average61 °F76%30.05 "Hg
* Reported May 11 3:53 AM — May 26 3:53 AM, Topeka, Weather by CustomWeather, © 2015

Note: Actual official high and low records may vary slightly from our data, if they occured in-between our weather recording intervals... More about our weather records

Advertising

Topeka weather history for previous 24 hours

 ConditionsComfort  
Time TempWeatherWind HumidityBarometerVisibility
3:53 AM
Tue, May 26
61 °FLight rain. Overcast.5 mph93%29.74 "Hg9 mi
2:53 AM61 °FLight rain. Overcast.7 mph97%29.80 "Hg7 mi
1:53 AM62 °FRain. Fog.9 mph96%29.83 "Hg5 mi
12:53 AM62 °FLight rain. Mostly cloudy.9 mph96%29.84 "Hg7 mi
12:00 AM62 °FMostly cloudy.No wind96%29.86 "Hg10 mi
11:01 PM
Mon, May 25
63 °FMostly cloudy.13 mph90%29.82 "Hg10 mi
10:01 PM67 °FMostly cloudy.6 mph73%29.83 "Hg10 mi
8:53 PM70 °FThundershowers. Overcast.9 mph61%29.80 "Hg10 mi
7:53 PM76 °FSunny.6 mph69%29.79 "Hg10 mi
6:53 PM79 °FSunny.12 mph62%29.75 "Hg10 mi
5:53 PM79 °FSunny.15 mph65%29.77 "Hg10 mi
4:53 PM79 °FSunny.16 mph62%29.75 "Hg10 mi
3:53 PM80 °FScattered clouds.21 mph62%29.78 "Hg10 mi
2:53 PM79 °FBroken clouds.16 mph67%29.81 "Hg10 mi
1:53 PM76 °FMostly cloudy.10 mph72%29.83 "Hg10 mi
12:53 PM75 °FMostly cloudy.13 mph69%29.85 "Hg10 mi
11:53 AM74 °FBroken clouds.18 mph69%29.85 "Hg10 mi
10:53 AM72 °FPassing clouds.14 mph68%29.83 "Hg10 mi
9:53 AM68 °FSunny.13 mph78%29.85 "Hg10 mi
8:53 AM64 °FSunny.9 mph90%29.85 "Hg10 mi
8:00 AM61 °FLight rain. Fog.21 mph97%29.83 "Hg5 mi
7:03 AM61 °FLight rain. More clouds than sun.3 mph97%29.94 "Hg7 mi
5:53 AM61 °FPassing clouds.3 mph93%29.86 "Hg10 mi
Weather by CustomWeather, © 2015

See weather overviewHow to use our weather pages